Location: Overspoor
(51.4747°N, 5.6641°E)
Time: 13:36:00
(UTC+02:00)

RS-15 - Pass Details

Date: 04 July 2022
Orbit: 1881 x 2163 km, 64.8° (Epoch: 13 August)

Event Time Altitude Azimuth Distance (km) Brightness Sun altitude
Rises 23:53:31 0° 315° (NW) 5,693 12.0 -11.9°
Reaches altitude 10° 23:57:00 10° 316° (NW) 4,693 11.3 -12.1°
Maximum altitude 00:09:29 85° 47° (NE) 2,160 8.2 -12.9°
Enters shadow 00:21:06 12° 137° (SE) 4,424 9.3 -13.5°
